TimeIST,TemperatureF,Dew PointF,Humidity,Sea Level PressureIn,VisibilityMPH,Wind Direction,Wind SpeedMPH,Gust SpeedMPH,PrecipitationIn,Events,Conditions,WindDirDegrees,DateUTC
12:10 AM,75.2,68.0,78,29.89,0.8,NNE,3.5,-,N/A,,Haze,30,2013-12-19 18:40:00
1:10 AM,73.4,66.2,78,29.89,1.0,Calm,Calm,-,N/A,,Haze,0,2013-12-19 19:40:00
2:10 AM,73.4,68.0,83,29.89,0.9,Calm,Calm,-,N/A,,Haze,0,2013-12-19 20:40:00
2:30 AM,68,66,92,29.88,1,Calm,Calm,,,,Haze,,2013-12-19 21:00:00
3:10 AM,73.4,68.0,83,29.86,0.9,NE,3.5,-,N/A,,Haze,40,2013-12-19 21:40:00
3:40 AM,71.6,66.2,83,29.86,1.1,NNE,3.5,-,N/A,,Haze,20,2013-12-19 22:10:00
4:10 AM,69.8,66.2,88,29.86,1.1,Calm,Calm,-,N/A,,Haze,0,2013-12-19 22:40:00
4:40 AM,71.6,66.2,83,29.86,1.1,Calm,Calm,-,N/A,,Haze,0,2013-12-19 23:10:00
5:10 AM,71.6,66.2,83,29.89,1.0,Calm,Calm,-,N/A,,Haze,0,2013-12-19 23:40:00
5:30 AM,66,64,93,29.89,1,Calm,Calm,,,,Haze,,2013-12-20 00:00:00
5:40 AM,69.8,66.2,88,29.89,1.0,Calm,Calm,-,N/A,,Haze,0,2013-12-20 00:10:00
6:10 AM,71.6,66.2,83,29.89,1.0,Calm,Calm,-,N/A,,Haze,0,2013-12-20 00:40:00
7:10 AM,69.8,64.4,83,29.92,0.8,SSE,3.5,-,N/A,,Haze,150,2013-12-20 01:40:00
7:40 AM,69.8,64.4,83,29.92,0.8,ESE,5.8,-,N/A,,Mist,120,2013-12-20 02:10:00
8:10 AM,69.8,66.2,88,29.95,0.6,East,4.6,-,N/A,,Haze,90,2013-12-20 02:40:00
8:30 AM,69,65,84,29.95,1,Calm,Calm,,,,Haze,,2013-12-20 03:00:00
8:40 AM,71.6,64.4,78,29.95,0.7,ENE,3.5,-,N/A,,Haze,60,2013-12-20 03:10:00
10:10 AM,78.8,62.6,57,29.98,1.2,North,3.5,-,N/A,,Smoke,350,2013-12-20 04:40:00
10:40 AM,78.8,59.0,51,29.98,1.4,NNW,5.8,-,N/A,,Smoke,340,2013-12-20 05:10:00
11:10 AM,80.6,60.8,51,29.98,1.6,NNE,4.6,-,N/A,,Smoke,20,2013-12-20 05:40:00
11:30 AM,83,58,33,29.96,1,East,3.5,,,,Smoke,90,2013-12-20 06:00:00
12:10 PM,84.2,59.0,42,29.95,1.6,ENE,3.5,-,N/A,,Smoke,60,2013-12-20 06:40:00
12:40 PM,84.2,59.0,42,29.92,1.6,WNW,3.5,-,N/A,,Smoke,300,2013-12-20 07:10:00
1:10 PM,82.4,64.4,54,29.89,1.6,West,8.1,-,N/A,,Smoke,270,2013-12-20 07:40:00
1:40 PM,82.4,62.6,51,29.89,1.6,West,9.2,-,N/A,,Smoke,280,2013-12-20 08:10:00
2:10 PM,84.2,64.4,51,29.89,1.6,West,9.2,-,N/A,,Smoke,280,2013-12-20 08:40:00
2:30 PM,84,63,40,29.88,1,NW,5.8,,,,Smoke,320,2013-12-20 09:00:00
2:40 PM,82.4,64.4,54,29.89,1.6,WNW,10.4,-,N/A,,Smoke,290,2013-12-20 09:10:00
3:10 PM,82.4,64.4,54,29.86,1.6,WNW,8.1,-,N/A,,Smoke,290,2013-12-20 09:40:00
3:40 PM,84.2,66.2,55,29.86,1.6,WNW,8.1,-,N/A,,Smoke,290,2013-12-20 10:10:00
4:10 PM,80.6,66.2,61,29.86,1.3,WNW,9.2,-,N/A,,Smoke,290,2013-12-20 10:40:00
4:40 PM,80.6,64.4,58,29.86,1.3,WNW,9.2,-,N/A,,Smoke,290,2013-12-20 11:10:00
5:10 PM,80.6,66.2,61,29.86,1.3,West,9.2,-,N/A,,Smoke,280,2013-12-20 11:40:00
5:30 PM,80,66,53,29.88,1,NW,5.8,,,,Smoke,320,2013-12-20 12:00:00
5:40 PM,78.8,66.2,65,29.89,1.3,West,9.2,-,N/A,,Smoke,280,2013-12-20 12:10:00
6:10 PM,78.8,66.2,65,29.89,1.3,WNW,6.9,-,N/A,,Smoke,300,2013-12-20 12:40:00
6:40 PM,77.0,68.0,74,29.89,1.3,WNW,6.9,-,N/A,,Haze,300,2013-12-20 13:10:00
7:10 PM,77.0,68.0,74,29.89,1.3,NW,5.8,-,N/A,,Haze,310,2013-12-20 13:40:00
7:40 PM,77.0,66.2,69,29.92,1.3,WNW,4.6,-,N/A,,Haze,300,2013-12-20 14:10:00
8:10 PM,77.0,66.2,69,29.92,1.4,North,5.8,-,N/A,,Smoke,350,2013-12-20 14:40:00
8:30 PM,75,66,67,29.93,1,North,4.6,,,,Smoke,0,2013-12-20 15:00:00
8:40 PM,77.0,66.2,69,29.92,1.4,NNW,3.5,-,N/A,,Smoke,340,2013-12-20 15:10:00
9:10 PM,77.0,66.2,69,29.92,1.4,North,4.6,-,N/A,,Smoke,360,2013-12-20 15:40:00
9:40 PM,77.0,66.2,69,29.92,1.6,North,4.6,-,N/A,,Smoke,10,2013-12-20 16:10:00
10:10 PM,75.2,66.2,73,29.92,1.6,North,4.6,-,N/A,,Smoke,10,2013-12-20 16:40:00
10:40 PM,75.2,64.4,69,29.92,1.6,NNE,4.6,-,N/A,,Smoke,30,2013-12-20 17:10:00
11:10 PM,75.2,64.4,69,29.92,1.6,NNE,3.5,-,N/A,,Smoke,20,2013-12-20 17:40:00
11:30 PM,70,65,81,29.94,1,Calm,Calm,,,,Haze,,2013-12-20 18:00:00
11:40 PM,73.4,64.4,73,29.92,1.6,WNW,4.6,-,N/A,,Haze,300,2013-12-20 18:10:00